軌道要素
Epoch 2022 Aug. 9.0 TT = JDT 2459800.5
T 2019 Sept. 8.96888 TT Rudenko
q 1.3414110 (2000.0) P Q
z +0.0079123 Peri. 3.59261 +0.57650438 -0.79162187
+/-0.0000010 Node 308.68042 -0.75598431 -0.61076699
e 0.9893864 Incl. 164.97086 -0.31004906 +0.01727722
H 15.7
>From 342 observations 2018 Sept. 6-2020 June 16, mean residual 0".3.
|